Wind_Speed
108 109 95 88 94 97 94 92 90 87 89 86 91 90 80 85 86 83 76 72 64 63 62 65 71 70 71 76 77 75 70 72 74 72 70 69 71 68 67 64 62 61 59 61
115 104 101 100 96 94 94 92 85 88 87 84 85 88 88 82 77 77 72 67 67 63 67 68 73 76 79 82 75 74 71 71 70 71 70 70 67 64 62 60 59 58 57 60
116 110 110 106 100 97 91 89 89 90 91 86 84 84 79 72 69 69 69 73 71 69 73 78 82 79 81 77 73 72 67 66 67 68 68 63 60 58 58 56 55 56 58 60
120 112 109 113 112 110 98 98 98 98 92 81 93 78 74 72 73 76 76 77 72 76 81 82 75 72 69 68 66 63 62 61 64 62 56 51 51 52 52 50 51 53 56 53
110 114 118 118 112 110 109 106 103 99 99 98 89 90 71 76 76 80 80 77 78 77 75 67 66 63 61 59 56 55 55 58 58 49 44 43 45 46 46 48 50 52 48 40
114 118 117 111 109 107 103 108 109 100 102 96 91 91 82 85 82 84 82 79 78 75 62 61 63 58 57 53 49 51 52 51 46 39 37 36 42 41 44 48 47 42 37 33
113 116 113 112 108 106 103 102 105 107 108 96 98 93 77 78 85 80 71 66 64 62 57 53 51 50 47 47 47 47 44 40 34 31 31 36 36 37 42 44 40 37 35 30
112 109 105 106 109 108 106 105 100 94 91 87 87 76 67 69 71 62 55 54 53 49 47 46 41 41 40 44 42 39 30 28 26 26 31 31 33 36 38 38 33 33 29 29
112 110 107 104 101 103 103 100 96 95 95 90 82 72 67 68 67 60 49 41 35 35 36 29 32 37 32 38 34 25 22 21 22 26 29 29 32 35 36 32 28 27 30 30
108 107 108 109 104 99 95 92 92 90 91 85 76 70 63 61 59 46 37 33 34 29 24 23 24 25 28 25 24 19 17 19 21 24 25 29 31 34 30 24 22 24 24 27
89 100 109 110 107 104 99 93 90 88 81 73 64 55 54 56 48 37 32 26 25 20 17 18 18 23 23 19 16 15 15 16 21 24 26 27 31 31 23 21 18 16 23 27
79 81 102 109 106 103 101 99 98 91 77 68 60 47 50 57 41 36 30 28 26 20 13 15 19 21 16 14 14 11 14 18 22 25 25 27 30 25 17 14 14 16 21 25
75 78 90 92 96 101 101 98 97 88 83 71 64 47 64 58 42 40 31 24 22 25 14 19 21 17 9 10 8 14 16 20 23 25 25 27 26 18 16 12 15 15 19 25
62 77 88 87 85 90 94 97 93 88 83 71 61 61 67 54 49 45 37 33 31 30 21 19 21 13 9 8 12 14 18 20 24 24 24 27 21 16 14 15 14 13 20 27
53 62 67 82 87 75 77 83 85 86 82 75 66 67 69 61 55 43 32 29 28 29 22 21 20 16 10 10 16 20 21 20 23 23 23 26 19 16 16 13 11 15 19 25
42 48 55 62 70 78 74 73 71 76 78 75 70 65 75 70 57 46 40 37 29 32 22 22 22 20 15 12 14 19 17 20 22 23 23 23 18 16 17 12 11 13 17 23
32 39 44 48 55 66 79 73 64 66 66 68 67 70 79 61 49 49 44 38 31 29 23 19 24 23 15 13 15 19 15 19 22 23 24 21 16 14 16 14 12 10 15 20
24 28 33 39 46 54 61 69 69 64 63 62 65 72 65 58 43 46 44 32 35 29 26 20 23 27 19 12 13 17 16 19 20 23 23 19 13 12 16 14 13 10 11 15
21 24 30 33 40 45 51 61 71 73 64 62 63 69 58 57 55 46 33 28 35 30 27 21 23 26 24 18 15 18 16 18 18 23 22 17 11 10 14 19 13 7 7 8
21 24 28 33 36 42 46 53 61 69 72 72 77 57 57 55 51 49 41 41 38 29 24 25 29 30 30 20 19 13 14 17 18 22 20 16 10 12 9 15 17 11 6 4
22 29 34 35 36 40 42 48 54 63 73 77 71 59 55 54 57 55 48 41 38 32 27 30 30 27 26 23 19 10 16 18 19 21 18 13 8 10 9 7 11 11 7 1
30 35 38 39 38 38 48 44 48 56 67 74 64 58 54 54 57 52 49 44 39 35 33 33 29 26 26 24 13 13 17 19 19 19 18 9 5 7 6 4 5 10 10 5
32 37 44 49 48 47 43 36 47 52 56 62 63 64 61 58 56 57 52 45 37 38 36 34 31 25 20 23 16 16 16 18 18 15 15 7 4 5 4 3 1 6 12 7
29 38 43 48 52 55 52 45 49 49 55 50 70 68 46 59 57 56 54 46 43 43 33 34 30 24 21 21 18 19 18 18 16 13 11 7 4 3 2 2 2 0 5 9
20 32 43 48 55 56 58 58 54 62 68 64 66 69 75 59 55 60 65 57 52 46 39 36 32 24 20 16 18 15 15 17 14 13 8 5 4 3 1 1 2 3 2 6
7 18 36 54 60 57 64 63 62 72 66 63 59 66 72 62 59 62 65 58 58 48 45 39 29 29 26 20 14 13 13 16 13 11 6 2 2 1 1 1 1 3 4 4
Wind_Direction
240 243 241 245 244 244 246 245 242 245 250 255 255 253 256 260 263 267 270 273 273 276 281 284 285 288 291 292 291 295 294 293 294 295 294 294 295 298 299 303 307 305 306 309
238 241 240 241 242 243 244 245 245 245 249 252 252 252 253 257 261 264 263 267 272 276 281 286 288 289 291 289 291 292 290 291 292 292 292 293 296 298 302 308 306 307 311 313
240 239 240 241 242 244 243 244 242 245 248 248 249 249 253 254 260 263 266 265 271 280 281 282 287 286 285 285 285 286 286 286 288 288 291 294 296 301 307 307 309 313 315 313
238 240 242 243 242 243 243 242 239 240 245 248 250 250 253 254 257 261 264 264 270 278 281 283 284 282 283 284 284 283 283 285 285 286 290 295 301 306 304 307 312 313 313 318
238 240 242 242 244 244 243 243 242 242 244 244 250 254 248 255 258 260 263 267 272 280 282 281 279 279 280 279 278 279 279 279 283 285 290 298 302 302 306 311 315 318 320 317
238 238 240 241 240 242 242 243 244 245 242 243 252 255 248 255 260 265 271 273 274 277 277 276 274 277 277 279 276 274 276 280 284 289 295 299 300 305 309 313 316 317 315 310
234 237 238 239 241 242 243 244 244 246 246 246 255 253 255 259 261 267 269 268 270 273 273 272 274 274 275 275 276 275 279 283 284 291 295 298 301 308 311 312 316 314 310 311
233 236 237 239 239 241 243 244 246 246 247 247 249 252 255 254 258 262 265 269 269 264 264 265 266 269 268 272 275 277 285 287 292 291 293 300 306 309 311 315 312 308 316 318
232 233 235 236 237 238 240 242 245 246 247 247 248 249 249 252 257 262 266 261 255 254 258 263 257 263 272 274 279 279 282 289 285 285 298 306 310 309 313 313 312 310 316 322
231 231 233 235 236 238 240 240 241 244 245 247 247 247 250 250 255 258 251 246 247 249 242 255 263 279 284 277 273 272 281 277 279 291 304 309 307 311 313 307 304 311 318 330
231 229 232 233 233 235 236 239 240 240 240 243 242 244 245 245 244 243 237 230 248 254 243 264 286 297 279 269 265 267 267 281 290 299 308 307 309 311 309 305 312 321 329 338
232 230 230 231 234 232 233 236 236 237 237 239 238 233 239 243 235 238 234 235 251 238 251 284 308 291 270 269 254 256 286 294 295 304 312 307 310 310 298 302 319 317 325 345
233 230 232 236 233 231 233 234 238 237 237 232 231 228 237 238 233 235 231 227 248 248 263 281 301 269 232 235 259 289 282 293 303 311 305 311 310 306 289 300 313 316 330 342
236 233 230 231 233 232 231 232 233 235 236 233 230 230 235 237 235 233 228 230 244 249 255 274 289 223 235 258 281 274 288 298 305 305 307 315 309 300 276 295 318 331 342 342
230 232 233 231 233 232 230 231 230 232 231 230 230 231 237 237 236 228 214 226 242 250 251 263 268 212 230 265 297 281 284 300 301 298 308 315 306 298 271 294 318 335 344 348
225 226 227 227 228 229 229 228 226 227 227 227 227 227 232 229 229 230 228 237 240 245 243 259 233 218 229 258 289 297 283 305 295 299 309 312 297 294 262 278 306 332 343 358
221 219 220 219 220 220 223 223 222 223 222 220 221 225 232 225 227 226 227 234 233 238 229 258 225 227 228 248 287 282 298 305 295 305 312 310 294 303 246 259 278 322 338 353
211 211 209 209 213 215 216 218 219 217 216 214 215 222 226 220 206 224 217 222 222 228 223 246 222 222 235 252 277 285 303 304 299 306 314 311 306 307 241 247 271 304 332 359
191 195 197 196 201 204 204 208 213 213 209 207 209 216 213 213 205 205 184 211 216 215 219 238 223 216 229 237 267 291 303 304 301 306 314 312 306 321 246 245 259 289 320 12
173 176 181 181 188 188 193 201 205 204 205 203 210 203 207 206 198 194 186 199 219 217 218 225 214 211 224 241 252 275 302 307 304 305 313 315 314 327 291 248 250 263 262 341
166 166 170 171 179 184 184 196 197 197 200 205 204 200 200 200 189 174 186 193 209 208 218 211 213 217 232 236 250 284 307 304 299 303 309 306 311 322 314 270 246 236 222 121
166 167 165 163 169 177 177 190 184 192 195 204 199 197 197 197 192 178 176 179 189 201 215 210 204 212 220 223 242 281 299 297 297 306 313 301 315 314 311 309 241 215 217 218
170 170 167 163 162 167 160 172 175 182 188 197 191 196 195 196 190 175 174 172 178 202 208 210 205 213 208 219 247 264 291 289 291 303 315 291 309 300 310 335 305 221 225 218
176 173 175 168 165 161 160 158 167 169 167 176 188 191 193 199 194 178 181 172 182 198 202 211 204 209 209 223 245 265 278 285 286 294 315 287 292 294 290 2 33 215 223 213
190 183 177 173 169 167 166 152 153 160 168 175 192 190 195 196 189 182 178 175 181 189 194 204 201 214 211 229 251 259 273 277 278 286 300 300 289 251 231 29 51 79 134 197
236 202 186 174 172 172 170 158 163 168 167 170 181 193 193 193 183 181 179 183 186 186 193 194 202 203 202 228 233 258 272 273 268 275 286 308 1 166 162 139 82 82 98 133
Height
10623 10631 10665 10679 10679 10688 10697 10708 10723 10725 10725 10723 10737 10753 10763 10758 10761 10773 10775 10776 10777 10777 10782 10783 10777 10777 10776 10768 10769 10766 10761 10754 10749 10745 10744 10738 10732 10727 10722 10717 10711 10703 10693 10682
10600 10627 10644 10643 10655 10667 10681 10691 10707 10705 10706 10712 10714 10733 10746 10752 10759 10761 10762 10766 10761 10772 10775 10769 10767 10768 10763 10757 10757 10754 10751 10743 10737 10731 10727 10724 10718 10713 10707 10703 10697 10689 10680 10670
10587 10612 10612 10624 10638 10648 10665 10675 10684 10684 10684 10699 10702 10715 10732 10745 10749 10748 10753 10750 10755 10763 10759 10756 10757 10757 10747 10744 10746 10743 10738 10732 10725 10719 10714 10710 10706 10700 10695 10688 10680 10673 10665 10658
10572 10584 10591 10603 10617 10624 10646 10652 10659 10667 10668 10697 10677 10711 10725 10733 10738 10738 10735 10739 10750 10748 10746 10743 10742 10736 10735 10730 10733 10728 10724 10719 10713 10709 10704 10699 10695 10692 10687 10680 10672 10665 10656 10647
10564 10561 10563 10580 10595 10604 10630 10627 10640 10649 10662 10666 10682 10686 10734 10715 10722 10713 10721 10736 10738 10738 10734 10731 10724 10723 10721 10718 10718 10716 10711 10705 10702 10698 10696 10693 10688 10685 10678 10670 10662 10654 10645 10641
10528 10528 10541 10563 10573 10583 10597 10609 10619 10631 10643 10655 10675 10677 10711 10703 10700 10697 10718 10728 10725 10727 10723 10718 10710 10711 10707 10706 10704 10701 10698 10694 10691 10691 10688 10686 10683 10678 10670 10663 10657 10649 10643 10637
10491 10503 10525 10540 10556 10565 10576 10585 10599 10614 10629 10665 10645 10669 10694 10687 10678 10697 10706 10712 10713 10710 10708 10703 10701 10698 10697 10694 10693 10690 10688 10685 10685 10683 10681 10680 10676 10671 10664 10657 10650 10644 10639 10634
10474 10488 10506 10522 10536 10547 10556 10565 10585 10603 10616 10630 10634 10668 10680 10664 10662 10691 10695 10698 10699 10697 10696 10694 10692 10689 10688 10685 10683 10681 10680 10678 10677 10676 10675 10674 10669 10663 10659 10652 10645 10639 10635 10630
10450 10469 10483 10496 10509 10520 10534 10556 10568 10581 10594 10610 10631 10651 10659 10657 10657 10678 10687 10686 10684 10684 10685 10685 10683 10681 10679 10677 10675 10673 10673 10671 10672 10671 10669 10666 10662 10656 10652 10646 10641 10637 10632 10625
10428 10450 10461 10470 10487 10504 10518 10536 10544 10562 10573 10595 10622 10638 10654 10644 10649 10668 10675 10677 10673 10675 10677 10676 10675 10674 10671 10670 10669 10667 10666 10668 10667 10665 10664 10659 10655 10651 10646 10642 10639 10635 10629 10621
10406 10428 10434 10444 10465 10484 10499 10515 10528 10538 10559 10583 10609 10632 10633 10628 10643 10655 10662 10667 10665 10667 10668 10668 10667 10666 10664 10663 10662 10663 10664 10664 10662 10661 10659 10654 10650 10645 10641 10638 10635 10631 10625 10618
10390 10413 10407 10419 10443 10463 10475 10493 10502 10519 10556 10578 10595 10618 10618 10611 10636 10646 10655 10659 10658 10659 10661 10661 10660 10659 10659 10659 10660 10661 10660 10659 10657 10656 10653 10649 10645 10640 10638 10635 10633 10629 10623 10615
10368 10393 10393 10406 10425 10444 10455 10474 10489 10519 10535 10564 10581 10613 10589 10606 10626 10635 10645 10650 10651 10652 10656 10656 10656 10655 10655 10657 10658 10658 10656 10655 10652 10650 10648 10645 10640 10636 10635 10633 10631 10626 10619 10613
10353 10360 10374 10393 10403 10416 10439 10458 10477 10499 10519 10553 10574 10583 10576 10599 10612 10624 10635 10641 10642 10647 10650 10651 10652 10651 10653 10653 10654 10654 10653 10651 10648 10646 10644 10640 10636 10634 10633 10631 10628 10622 10616 10611
10336 10344 10360 10375 10382 10410 10430 10443 10466 10484 10505 10529 10552 10564 10567 10586 10597 10611 10625 10633 10636 10639 10644 10645 10646 10647 10649 10650 10650 10650 10649 10647 10644 10642 10640 10635 10633 10631 10629 10628 10625 10620 10615 10610
10322 10331 10343 10357 10373 10395 10411 10428 10450 10466 10486 10515 10533 10549 10544 10559 10586 10604 10616 10622 10629 10632 10639 10639 10640 10643 10644 10646 10646 10646 10645 10643 10640 10638 10636 10632 10629 10627 10626 10625 10622 10619 10614 10609
10316 10322 10333 10348 10360 10375 10390 10414 10436 10454 10475 10500 10522 10530 10521 10561 10580 10592 10603 10612 10620 10624 10632 10632 10637 10640 10641 10642 10643 10641 10641 10639 10637 10634 10632 10628 10625 10622 10622 10622 10620 10618 10614 10608
10311 10319 10329 10340 10351 10365 10383 10405 10424 10445 10465 10489 10502 10501 10526 10553 10572 10585 10592 10603 10611 10617 10622 10626 10630 10635 10638 10639 10640 10638 10638 10636 10634 10631 10628 10624 10621 10618 10618 10619 10619 10617 10614 10609
10309 10317 10326 10336 10347 10360 10375 10388 10405 10430 10456 10473 10483 10490 10526 10540 10560 10573 10587 10599 10603 10609 10615 10620 10624 10629 10633 10635 10637 10635 10635 10633 10631 10628 10625 10621 10618 10616 10615 10616 10617 10616 10615 10611
10309 10316 10325 10335 10346 10355 10367 10379 10395 10417 10438 10453 10459 10497 10510 10530 10550 10566 10579 10589 10599 10605 10609 10615 10617 10622 10627 10632 10634 10634 10631 10630 10629 10626 10622 10618 10616 10614 10612 10613 10614 10615 10614 10612
10310 10316 10324 10334 10344 10355 10370 10376 10388 10405 10426 10439 10460 10488 10505 10522 10541 10555 10568 10582 10591 10596 10603 10608 10612 10619 10624 10628 10630 10630 10629 10627 10627 10624 10620 10617 10614 10613 10611 10610 10611 10613 10613 10613
10310 10318 10326 10336 10346 10357 10365 10372 10393 10404 10418 10434 10466 10484 10502 10516 10534 10551 10563 10574 10584 10592 10598 10603 10610 10615 10619 10623 10625 10626 10626 10625 10623 10621 10617 10614 10613 10612 10611 10609 10609 10611 10612 10613
10313 10320 10327 10332 10343 10352 10363 10373 10386 10401 10422 10438 10463 10477 10490 10507 10526 10545 10558 10570 10579 10587 10594 10600 10606 10612 10614 10618 10621 10623 10623 10622 10621 10619 10615 10612 10611 10612 10610 10609 10608 10609 10610 10611
10319 10324 10330 10337 10344 10351 10363 10377 10388 10404 10422 10437 10456 10472 10491 10503 10517 10536 10550 10561 10570 10580 10590 10596 10601 10607 10610 10614 10618 10620 10620 10620 10618 10618 10615 10612 10611 10611 10610 10609 10608 10608 10608 10610
10329 10332 10335 10341 10349 10356 10367 10379 10391 10408 10421 10436 10451 10466 10481 10495 10512 10526 10537 10548 10560 10571 10583 10590 10596 10604 10608 10612 10614 10617 10618 10618 10617 10616 10615 10613 10611 10610 10610 10609 10609 10608 10608 10609
10334 10338 10343 10348 10352 10360 10367 10377 10389 10406 10422 10435 10445 10457 10475 10490 10507 10519 10530 10541 10555 10566 10576 10583 10590 10598 10605 10609 10612 10613 10615 10616 10616 10616 10615 10613 10612 10610 10609 10609 10610 10609 10609 10610